sat.trackr.live / text

‹ back to catalog

STARLINK-31879

NORAD 59937 · 2024-106R

PAYLOAD ACTIVE UNKNOWN

§ Identity

Operator
Country
US
Launch date
2024-06-01
Launch site
AFETR
Launch vehicle
Mass (kg)
RCS (m²)

Purposes: comms

External: N2YO · Heavens-Above · Gunter

§ Orbital elements

Epoch: 2026-05-25T00:49:36.751296Z

Period
94.27 min
Inclination
43.0018°
Eccentricity
0.0001156
Mean motion
15.27575378 rev/d
Perigee alt
482.3 km
Apogee alt
483.9 km
Semi-major
6,861.2 km
B*
1.8603e-5
RAAN
261.8050°
Arg perigee
273.4214°
Mean anomaly
86.6506°
Rev number
11,224

§ Raw data

STARLINK-318791 59937U 24106R   26145.03445314  .00000250  00000+0  18603-4 0  99962 59937  43.0018 261.8050 0001156 273.4214  86.6506 15.27575378112240

JSON: /api/v1/satellites/59937 · /tle

For live sub-satellite position, see the globe view (requires WebGL).

§ Visibility from observer

Set your observer location to see the next 7 days of passes ≥ 10°. The values pass through the URL so the page stays shareable.

No JS? Fill the form by hand. The geolocation button needs JavaScript.